[[{"header":{"parameterUnit":"m.s-1","parameterCategory":1,"la1":30.2991,"la2":30.254,"lo1":-89.0895,"lo2":-89.0444,"dy":0.0017,"dx":0.0017,"nx":28,"ny":28,"refTime":"2025-05-31T09:00:00:Z","depth":0,"parameterNumber":2,"parameterNumberName":"U-component_of_WINDS"},"data":[0,0,0,0,0,0,0,0,0,0,0,0,0,0,0,0,0,0,0,0,0,0,0,0,0,0,0,0,0,0,0,0,0,0,0,0,0,0,0,0,0,0,0,0,0,0,0,0,0,0,0,0,0,0,0,0,0,0,0.0004,0.0004,0,0.0062,0.0063,0.0064,0.0114,0.0115,0.0115,0.0116,0.018,0.0181,0.0182,0,0,0,0,0,0,0,0,0,0,0,0,0,-0.0063,-0.0062,0.0003,0.0004,0.0005,0.0062,0.0063,0.0064,0.0114,0.0115,0.0116,0.0116,0.018,0.0181,0.0183,0,0,0,0,0,0,0,0,0,0,0,0,0,-0.0022,-0.0062,0.0003,0.0037,0.004,0.0062,0.0063,0.0064,0.0114,0.0115,0.0116,0.0116,0.0179,0.0181,0.0183,0.0177,0,0,0.0188,0.0189,0,0,0,0,0,0,0,0,-0.0024,-0.002,0.0031,0.0035,0.0039,0.0082,0.0063,0.0102,0.0114,0.0086,0.0116,0.0117,0.0147,0.0151,0.0161,0.018,0.0183,0.0188,0.0189,0.019,0.0191,0,0,0,0,0,0,0,-0.0027,-0.0022,0.0027,0.0032,0.0036,0.005,0.0057,0.0071,0.0111,0.0089,0.0092,0.0099,0.0149,0.0159,0.0163,0.0184,0.0188,0.019,0.0191,0.0192,0.0201,0.0201,0,0,0,0,0,0,-0.0036,-0.0024,0.0025,0.0029,0.0008,0.005,0.0058,0.0067,0.0111,0.0119,0.0098,0.0101,0.0155,0.0161,0.0165,0.0162,0.019,0.0192,0.0193,0.0202,0.0201,0.02,0,0,0,0,0,0,-0.0037,-0.0032,0.0023,0.0003,0.0011,0.0051,0.0061,0.0068,0.0078,0.0118,0.0126,0.01,0.0156,0.0163,0.0173,0.0165,0.0193,0.0194,0.0203,0.0202,0.0201,0.0155,0,0,0,0,0,0,-0.0039,-0.0033,-0.0035,0.0003,0.0012,0.0029,0.006,0.0068,0.008,0.0085,0.0122,0.013,0.0157,0.017,0.0175,0.0168,0.0196,0.0204,0.0203,0.0201,0.0157,0.0152,0.0148,0,0,0,0,0,-0.0042,-0.0049,-0.0035,-0.0029,0.001,0.0029,0.0034,0.0065,0.0079,0.0078,0.0104,0.0128,0.0164,0.0171,0.0177,0.017,0.0205,0.0203,0.0201,0.0159,0.0153,0.0148,0,0,0,0,0,0,-0.0087,-0.0043,-0.0027,-0.0023,-0.0002,0.0037,0.0036,0.0058,0.0077,0.008,0.0119,0.0127,0.0134,0.0153,0.016,0.0166,0.0188,0.0187,0.0154,0.0149,0.0144,0.014,0.0197,0,0,0,0,0,-0.0097,-0.0086,-0.0048,-0.0048,-0.0038,-0.0003,0.0006,0.0028,0.0053,0.0062,0.0089,0.0113,0.0129,0.014,0.0157,0.0159,0.0169,0.0157,0.0152,0.0148,0.0148,0.015,0.0146,0.0194,0.0194,0.0194,0,0,-0.0116,-0.0091,-0.0086,-0.0056,-0.0037,-0.0026,0.0004,0.0015,0.0024,0.0064,0.0076,0.0096,0.0125,0.0131,0.0136,0.0148,0.0136,0.0146,0.0142,0.0144,0.0148,0.0143,0.0139,0.0193,0.0193,0.0193,0,0,-0.0145,-0.0125,-0.0123,-0.0105,-0.0077,-0.0054,-0.0054,-0.0019,-0.0004,0.0008,0.0038,0.0049,0.0077,0.0097,0.011,0.0086,0.0109,0.009,0.0066,0.0068,0.0064,0.0061,0.0053,0.005,0.0089,0.0089,0.0089,0,-0.0171,-0.0155,-0.0124,-0.0116,-0.0103,-0.0068,-0.0065,-0.0049,-0.0016,-0.0008,0.0004,0.0039,0.0061,0.0072,0.0066,0.0076,0.0078,0.0087,0.0062,0.0059,0.0057,0.005,0.0047,0.0087,0.0087,0.0087,0.0087,0,-0.0189,-0.0178,-0.0179,-0.015,-0.0138,-0.0132,-0.01,-0.0092,-0.0072,-0.005,-0.0038,-0.0012,0.0012,0.0016,0.0036,0.003,0.0036,0.0054,0.0077,0.0049,0.0043,0.0041,0.0083,0.0084,0.0085,0.0085,0,0,-0.0241,-0.0198,-0.0198,-0.0185,-0.0153,-0.0143,-0.0136,-0.0115,-0.0108,-0.0087,-0.008,-0.0058,-0.0042,-0.0027,-0.0004,-0.0003,-0.0023,0.0016,0.0017,0.0009,-0.0028,-0.0041,-0.0044,-0.0008,-0.0009,-0.0009,-0.003,0,-0.0264,-0.025,-0.0224,-0.0218,-0.0207,-0.0175,-0.0169,-0.0148,-0.0128,-0.0116,-0.0093,-0.0078,-0.0058,-0.0049,-0.0046,-0.0021,-0.0029,-0.0019,0.0001,0.0001,-0.0006,-0.0047,-0.006,-0.0081,-0.0032,-0.0032,-0.0033,0,-0.0288,-0.0271,-0.0265,-0.0234,-0.0229,-0.0224,-0.0202,-0.0191,-0.0167,-0.0153,-0.0137,-0.0113,-0.0103,-0.0085,-0.007,-0.0064,-0.0055,-0.0042,-0.0042,-0.0037,-0.0016,-0.0042,-0.0087,-0.009,-0.0036,-0.0036,-0.0036,0,-0.0326,-0.0302,-0.0295,-0.0284,-0.0249,-0.0246,-0.0231,-0.0206,-0.0195,-0.0177,-0.0169,-0.015,-0.0138,-0.0123,-0.0094,-0.0083,-0.0083,-0.0062,-0.007,-0.0071,-0.0069,-0.0069,-0.0112,-0.0066,-0.0066,-0.0066,-0.0066,0,-0.0353,-0.035,-0.0311,-0.0307,-0.0303,-0.0273,-0.0269,-0.0251,-0.023,-0.0221,-0.0192,-0.0184,-0.0147,-0.0135,-0.0112,-0.0104,-0.0099,-0.0086,-0.008,-0.0088,-0.0089,-0.0079,-0.0077,-0.0067,-0.0067,-0.0067,-0.0067,0,-0.0393,-0.0368,-0.0358,-0.0326,-0.0318,-0.0316,-0.0288,-0.0283,-0.0262,-0.0251,-0.0247,-0.0214,-0.0198,-0.0169,-0.0144,-0.0129,-0.0125,-0.0115,-0.0133,-0.0129,-0.0138,-0.0138,-0.0175,-0.0178,-0.0132,-0.0132,-0.0133,0,-0.0411,-0.0409,-0.0377,-0.037,-0.0356,-0.0345,-0.0334,-0.0305,-0.0295,-0.0268,-0.0266,-0.0248,-0.0232,-0.0208,-0.0181,-0.0163,-0.0151,-0.0166,-0.0148,-0.0156,-0.015,-0.015,-0.0149,-0.0169,-0.017,-0.017,-0.0171,0,-0.0446,-0.0434,-0.042,-0.0403,-0.0392,-0.0376,-0.0359,-0.0354,-0.0321,-0.0311,-0.0295,-0.0283,-0.0259,-0.0242,-0.022,-0.0203,-0.0181,-0.0177,-0.0178,-0.0184,-0.0195,-0.0188,-0.0143,-0.0176,-0.0175,-0.0175,-0.0174,-0.0174,-0.0474,-0.0471,-0.0448,-0.0435,-0.0419,-0.0404,-0.0398,-0.0377,-0.0364,-0.0343,-0.0327,-0.0312,-0.0289,-0.0257,-0.0242,-0.023,-0.022,-0.0221,-0.0221,-0.0221,-0.0224,-0.0199,-0.0226,-0.0226,-0.0226,-0.0226,-0.0226,0,-0.0506,-0.0491,-0.0479,-0.0457,-0.0446,-0.0429,-0.0409,-0.0401,-0.0389,-0.037,-0.0356,-0.0338,-0.0322,-0.0295,-0.0276,-0.0272,-0.0261,-0.0267,-0.0266,-0.0263,-0.0235,-0.0236,-0.0276,-0.0276,-0.0276,-0.0276,-0.0276,-0.0276,-0.0521,-0.0514,-0.05,-0.0485,-0.0469,-0.0456,-0.0446,-0.0432,-0.0417,-0.0399,-0.0386,-0.0369,-0.0347,-0.0327,-0.0311,-0.0303,-0.0297,-0.0307,-0.0296,-0.027,-0.0265,-0.026,-0.0261,-0.0306,-0.0306,-0.0324,-0.0325,-0.0325]},{"header":{"parameterUnit":"m.s-1","parameterCategory":1,"la1":30.2991,"la2":30.254,"lo1":-89.0895,"lo2":-89.0444,"dy":0.0017,"dx":0.0017,"nx":28,"ny":28,"refTime":"2025-05-31T09:00:00:Z","depth":0,"parameterNumber":3,"parameterNumberName":"V-component_of_WINDS"},"data":[0,0,0,0,0,0,0,0,0,0,0,0,0,0,0,0,0,0,0,0,0,0,0,0,0,0,0,0,0,0,0,0,0,0,0,0,0,0,0,0,0,0,0,0,0,0,0,0,0,0,0,0,0,0,0,0,0,0,2.4015,2.4014,0,2.394,2.394,2.3939,2.3951,2.3952,2.3953,2.3955,2.3871,2.3868,2.3864,0,0,0,0,0,0,0,0,0,0,0,0,0,2.4161,2.4159,2.4015,2.4014,2.4013,2.3941,2.394,2.3939,2.395,2.3952,2.3954,2.3955,2.3872,2.3868,2.3864,0,0,0,0,0,0,0,0,0,0,0,0,0,2.4093,2.4158,2.4015,2.4011,2.401,2.3941,2.394,2.3938,2.395,2.3952,2.3954,2.3956,2.3873,2.3868,2.3863,2.3792,0,0,2.3848,2.3845,0,0,0,0,0,0,0,0,2.4097,2.4088,2.4012,2.4011,2.4009,2.3957,2.3961,2.3889,2.395,2.3972,2.3955,2.3957,2.3898,2.3891,2.3872,2.3788,2.3785,2.3847,2.3844,2.3842,2.384,0,0,0,0,0,0,0,2.4102,2.4091,2.3985,2.4011,2.4009,2.401,2.4003,2.3947,2.3925,2.3971,2.3971,2.3963,2.3897,2.3877,2.387,2.3784,2.3847,2.3843,2.384,2.3837,2.3637,2.3635,0,0,0,0,0,0,2.4109,2.4095,2.3988,2.3983,2.4059,2.4006,2.3998,2.3972,2.3925,2.392,2.3961,2.3964,2.3885,2.3876,2.3867,2.378,2.3842,2.3837,2.3834,2.3639,2.3637,2.3634,0,0,0,0,0,0,2.4112,2.4099,2.3991,2.4039,2.4026,2.4001,2.3972,2.3969,2.3949,2.3918,2.3914,2.3945,2.3886,2.3874,2.3811,2.3777,2.3835,2.383,2.3642,2.3639,2.3636,2.3606,0,0,0,0,0,0,2.4116,2.41,2.4074,2.4039,2.4023,2.3938,2.397,2.3966,2.3941,2.3944,2.3902,2.3897,2.3887,2.3819,2.3806,2.3771,2.3826,2.3645,2.3641,2.3637,2.361,2.3602,2.3596,0,0,0,0,0,2.4121,2.4068,2.4073,2.406,2.3991,2.3936,2.3927,2.3918,2.3938,2.3911,2.3891,2.3898,2.3784,2.3812,2.3798,2.3761,2.3647,2.3642,2.3637,2.3613,2.3604,2.3596,0,0,0,0,0,0,2.4097,2.4063,2.4068,2.4002,2.3972,2.3938,2.3903,2.3908,2.387,2.3873,2.3862,2.3853,2.3788,2.3769,2.3801,2.369,2.3718,2.371,2.3705,2.3696,2.3689,2.3693,2.3822,0,0,0,0,0,2.4085,2.4046,2.4017,2.3961,2.3946,2.3927,2.3903,2.39,2.3867,2.3853,2.3829,2.3795,2.3752,2.3723,2.3681,2.3608,2.3598,2.3576,2.3569,2.3563,2.3555,2.3514,2.3503,2.3618,2.3618,2.3618,0,0,2.4058,2.4034,2.4009,2.3956,2.3932,2.3889,2.3916,2.387,2.3838,2.3845,2.3785,2.3766,2.3727,2.3659,2.3627,2.364,2.3522,2.3556,2.3552,2.3547,2.3508,2.3497,2.3487,2.3614,2.3615,2.3616,0,0,2.3986,2.3965,2.3916,2.3892,2.3857,2.3845,2.3834,2.3799,2.3787,2.3727,2.3732,2.3692,2.3618,2.359,2.3566,2.3485,2.3489,2.3471,2.3433,2.3393,2.3384,2.3376,2.3345,2.3335,2.3464,2.3464,2.3464,0,2.3956,2.3894,2.389,2.3843,2.3818,2.3827,2.3776,2.3752,2.3704,2.3686,2.3702,2.3609,2.3583,2.3508,2.3488,2.3469,2.3454,2.3475,2.3386,2.3378,2.337,2.3341,2.3329,2.3462,2.3463,2.3463,2.3463,0,2.3858,2.3815,2.3779,2.3735,2.3707,2.3658,2.3644,2.3615,2.3615,2.36,2.3538,2.3508,2.346,2.3443,2.344,2.3366,2.3376,2.3389,2.3416,2.3357,2.3329,2.3318,2.3459,2.346,2.3461,2.3461,0,0,2.3767,2.3723,2.3709,2.3689,2.3651,2.3617,2.3568,2.3524,2.3499,2.3465,2.3423,2.336,2.3373,2.3346,2.334,2.3305,2.3242,2.3323,2.3322,2.3307,2.3157,2.3145,2.3133,2.3245,2.3243,2.3241,2.3159,0,2.369,2.3607,2.3602,2.3525,2.3484,2.3492,2.3449,2.342,2.3406,2.3367,2.3351,2.3306,2.3327,2.3311,2.3277,2.3257,2.3211,2.3263,2.3203,2.3201,2.321,2.3118,2.3106,2.303,2.3149,2.3147,2.3145,0,2.3589,2.3556,2.3475,2.3444,2.3426,2.3388,2.3347,2.3311,2.3278,2.327,2.324,2.324,2.3188,2.322,2.3146,2.3182,2.3157,2.3144,2.3141,2.3133,2.3168,2.3106,2.3006,2.2994,2.3129,2.313,2.3131,0,2.3529,2.3464,2.3407,2.339,2.3352,2.3324,2.3307,2.3276,2.325,2.3213,2.3195,2.3153,2.3128,2.3094,2.3082,2.3106,2.3009,2.3039,2.2998,2.2998,2.2975,2.2977,2.2868,2.2963,2.2963,2.2963,2.2964,0,2.3443,2.3393,2.338,2.3344,2.3288,2.3282,2.3226,2.321,2.3183,2.3143,2.3147,2.3109,2.3096,2.3055,2.3045,2.2985,2.2974,2.2965,2.2962,2.2963,2.2964,2.2945,2.295,2.296,2.2961,2.2962,2.2962,0,2.3365,2.3355,2.3293,2.3263,2.3254,2.3214,2.3187,2.3152,2.314,2.3089,2.3077,2.3056,2.3008,2.2994,2.2935,2.2929,2.2858,2.2861,2.287,2.2869,2.2828,2.2832,2.2702,2.2684,2.2792,2.2791,2.2791,0,2.331,2.3272,2.3239,2.3214,2.3196,2.3155,2.3129,2.3122,2.3094,2.3054,2.3023,2.2977,2.2939,2.2863,2.2841,2.2796,2.2797,2.2755,2.279,2.2792,2.2794,2.2796,2.2791,2.2747,2.2746,2.2745,2.2744,0,2.3213,2.321,2.3173,2.3134,2.3104,2.3072,2.3042,2.302,2.3008,2.2977,2.293,2.2901,2.2843,2.2796,2.2751,2.273,2.2734,2.2734,2.2722,2.2721,2.2727,2.2722,2.285,2.2736,2.2737,2.2738,2.2738,2.2738,2.3143,2.311,2.3082,2.304,2.3017,2.2989,2.2955,2.2939,2.29,2.2854,2.2852,2.28,2.2767,2.2708,2.2685,2.2644,2.2655,2.2638,2.2633,2.2629,2.2625,2.2736,2.2635,2.2636,2.2636,2.2636,2.2636,0,2.3045,2.3028,2.299,2.2949,2.2916,2.2926,2.2893,2.2864,2.2819,2.279,2.2753,2.2699,2.2654,2.2629,2.2584,2.2555,2.2555,2.2543,2.2544,2.2539,2.2618,2.2632,2.2543,2.2543,2.2543,2.2543,2.2543,2.2543,2.299,2.2934,2.2927,2.2859,2.2841,2.2792,2.2773,2.2746,2.2722,2.2662,2.2625,2.2611,2.2582,2.2535,2.2494,2.2488,2.247,2.2456,2.245,2.2524,2.2533,2.2542,2.2556,2.2452,2.2452,2.2375,2.2374,2.2374]}]]